When you browse on this site, cookies collect data to enhance your experience and personalize the content and advertising you see.
Visit our Privacy Policy to learn more. By continuing to use the site, you agree to this use of cookies and data.
  • In United Kingdom
  • List of Countries
  • For 7 days
  • Water Temperature
  • Satellite Maps
  • Weather Map
  • Weather Widgets
  • user-avatar
    Login

    Hourly Weather Butakara

    Today, 21 January, Monday

    Time Temperature Precipitation Wind Pressure Humidity
    00:00 +3°C° 0.6 mm 2 mps 711 mmHg 85%
    01:00 +2°C° 0.6 mm 2 mps 711 mmHg 86%
    02:00 +2°C° 0.6 mm 2 mps 712 mmHg 88%
    03:00 +2°C° 0.5 mm 2 mps 713 mmHg 89%
    04:00 +2°C° 0.5 mm 2 mps 713 mmHg 89%
    05:00 +1°C° 0 mm 2 mps 714 mmHg 86%
    06:00 +1°C° 0.3 mm 2 mps 714 mmHg 87%
    07:00 +1°C° 0.3 mm 2 mps 715 mmHg 87%
    08:00 +2°C° 0.3 mm 1 mps 715 mmHg 87%
    09:00 +2°C° 0.1 mm 1 mps 715 mmHg 84%
    10:00 +3°C° 0.1 mm 1 mps 715 mmHg 82%
    11:00 +3°C° 0 mm 1 mps 715 mmHg 76%
    12:00 +4°C° 0 mm 1 mps 715 mmHg 73%
    13:00 +4°C° 0 mm 1 mps 715 mmHg 71%
    14:00 +5°C° 0 mm 1 mps 715 mmHg 69%
    15:00 +4°C° 0 mm 1 mps 716 mmHg 71%
    16:00 +4°C° 0 mm 1 mps 716 mmHg 73%
    17:00 +4°C° 0 mm 1 mps 716 mmHg 75%
    18:00 +3°C° 0 mm 1 mps 717 mmHg 77%
    19:00 +3°C° 0 mm 1 mps 717 mmHg 78%
    20:00 +2°C° 0 mm 1 mps 717 mmHg 80%
    21:00 +2°C° 0 mm 1 mps 717 mmHg 78%
    22:00 +2°C° 0 mm 1 mps 716 mmHg 76%
    23:00 +2°C° 0 mm 1 mps 716 mmHg 75%

    Tomorrow, 22 January, Tuesday

    Time Temperature Precipitation Wind Pressure Humidity
    00:00 +1°C° 0 mm 1 mps 715 mmHg 73%
    01:00 +1°C° 0 mm 1 mps 715 mmHg 72%
    02:00 +1°C° 0 mm 1 mps 714 mmHg 70%
    03:00 +1°C° 0 mm 1 mps 713 mmHg 70%
    04:00 +1°C° 0 mm 1 mps 713 mmHg 70%
    05:00 +1°C° 0 mm 1 mps 713 mmHg 70%
    06:00 +1°C° 0 mm 1 mps 712 mmHg 71%
    07:00 +1°C° 0 mm 1 mps 712 mmHg 72%
    08:00 +1°C° 0 mm 1 mps 712 mmHg 73%
    09:00 +1°C° 0 mm 1 mps 711 mmHg 70%
    10:00 +2°C° 0 mm 1 mps 711 mmHg 68%
    11:00 +3°C° 0 mm 1 mps 710 mmHg 65%
    12:00 +4°C° 0 mm 1 mps 709 mmHg 63%
    13:00 +4°C° 0 mm 1 mps 709 mmHg 62%
    14:00 +4°C° 0 mm 2 mps 708 mmHg 61%
    15:00 +4°C° 0 mm 1 mps 709 mmHg 64%
    16:00 +4°C° 0 mm 1 mps 709 mmHg 68%
    17:00 +2°C° 0 mm 0 mps 709 mmHg 72%
    18:00 +2°C° 0 mm 0 mps 710 mmHg 72%
    19:00 +2°C° 0 mm 0 mps 710 mmHg 73%
    20:00 +1°C° 0 mm 0 mps 711 mmHg 73%
    21:00 +1°C° 0 mm 0 mps 711 mmHg 72%
    22:00 +1°C° 0 mm 0 mps 711 mmHg 71%
    23:00 +1°C° 0 mm 0 mps 711 mmHg 71%

    Day after tomorrow, 23 January, Wednesday

    Time Temperature Precipitation Wind Pressure Humidity
    00:00 +1°C° 0 mm 0 mps 711 mmHg 70%
    01:00 0°C° 0 mm 0 mps 711 mmHg 69%
    02:00 0°C° 0 mm 0 mps 711 mmHg 68%
    03:00 0°C° 0 mm 0 mps 711 mmHg 67%
    04:00 0°C° 0 mm 0 mps 711 mmHg 66%
    05:00 +1°C° 0 mm 1 mps 712 mmHg 65%
    06:00 0°C° 0 mm 0 mps 712 mmHg 64%
    07:00 0°C° 0 mm 0 mps 712 mmHg 63%
    08:00 0°C° 0 mm 0 mps 713 mmHg 62%
    09:00 +1°C° 0 mm 0 mps 713 mmHg 57%
    10:00 +2°C° 0 mm 0 mps 712 mmHg 52%
    11:00 +4°C° 0 mm 0 mps 712 mmHg 46%
    12:00 +5°C° 0 mm 1 mps 712 mmHg 45%
    13:00 +6°C° 0 mm 1 mps 712 mmHg 44%
    14:00 +6°C° 0 mm 1 mps 712 mmHg 43%
    15:00 +6°C° 0 mm 1 mps 712 mmHg 48%
    16:00 +5°C° 0 mm 1 mps 712 mmHg 52%
    17:00 +4°C° 0 mm 1 mps 713 mmHg 56%
    18:00 +4°C° 0 mm 1 mps 714 mmHg 57%
    19:00 +3°C° 0 mm 1 mps 714 mmHg 57%
    20:00 +3°C° 0 mm 1 mps 715 mmHg 58%
    21:00 +3°C° 0 mm 1 mps 715 mmHg 57%
    22:00 +2°C° 0 mm 1 mps 715 mmHg 57%
    23:00 +1°C° 0 mm 2 mps 715 mmHg 56%

    24 January, Thursday

    Time Temperature Precipitation Wind Pressure Humidity
    00:00 +1°C° 0 mm 2 mps 716 mmHg 55%
    01:00 +1°C° 0 mm 2 mps 716 mmHg 54%
    02:00 +1°C° 0 mm 2 mps 716 mmHg 52%
    03:00 +1°C° 0 mm 2 mps 716 mmHg 51%
    04:00 +1°C° 0 mm 2 mps 717 mmHg 49%
    05:00 -1°C° 0 mm 2 mps 717 mmHg 48%
    06:00 -1°C° 0 mm 2 mps 717 mmHg 47%
    07:00 +1°C° 0 mm 2 mps 718 mmHg 46%
    08:00 +1°C° 0 mm 2 mps 718 mmHg 45%
    09:00 +3°C° 0 mm 1 mps 718 mmHg 41%
    10:00 +4°C° 0 mm 1 mps 718 mmHg 38%
    11:00 +6°C° 0 mm 1 mps 718 mmHg 34%
    12:00 +6°C° 0 mm 1 mps 718 mmHg 34%
    13:00 +6°C° 0 mm 0 mps 718 mmHg 34%
    14:00 +7°C° 0 mm 0 mps 718 mmHg 34%
    15:00 +6°C° 0 mm 0 mps 718 mmHg 37%
    16:00 +5°C° 0 mm 0 mps 719 mmHg 41%
    17:00 +4°C° 0 mm 0 mps 719 mmHg 44%
    18:00 +5°C° 0 mm 1 mps 720 mmHg 46%
    19:00 +3°C° 0 mm 2 mps 721 mmHg 48%
    20:00 +2°C° 0 mm 2 mps 721 mmHg 50%
    21:00 +2°C° 0 mm 2 mps 722 mmHg 50%
    22:00 +1°C° 0 mm 3 mps 722 mmHg 51%
    23:00 0°C° 0 mm 3 mps 722 mmHg 52%

    25 January, Friday

    Time Temperature Precipitation Wind Pressure Humidity
    00:00 0°C° 0 mm 3 mps 722 mmHg 51%
    01:00 0°C° 0 mm 3 mps 722 mmHg 51%
    02:00 0°C° 0 mm 3 mps 722 mmHg 50%
    03:00 0°C° 0 mm 3 mps 722 mmHg 50%
    04:00 0°C° 0 mm 3 mps 721 mmHg 49%
    05:00 -1°C° 0 mm 3 mps 721 mmHg 48%
    06:00 -1°C° 0 mm 3 mps 722 mmHg 47%
    07:00 -1°C° 0 mm 3 mps 722 mmHg 46%
    08:00 -1°C° 0 mm 3 mps 722 mmHg 45%
    09:00 +2°C° 0 mm 2 mps 721 mmHg 41%
    10:00 +4°C° 0 mm 2 mps 720 mmHg 36%
    11:00 +5°C° 0 mm 2 mps 720 mmHg 32%
    12:00 +6°C° 0 mm 2 mps 719 mmHg 31%
    13:00 +7°C° 0 mm 2 mps 718 mmHg 30%
    14:00 +9°C° 0 mm 1 mps 718 mmHg 29%
    15:00 +8°C° 0 mm 1 mps 718 mmHg 33%
    16:00 +7°C° 0 mm 1 mps 718 mmHg 37%
    17:00 +6°C° 0 mm 1 mps 718 mmHg 40%
    18:00 +4°C° 0 mm 2 mps 719 mmHg 41%
    19:00 +3°C° 0 mm 2 mps 719 mmHg 42%
    20:00 +1°C° 0 mm 3 mps 719 mmHg 42%
    21:00 +1°C° 0 mm 3 mps 719 mmHg 41%
    22:00 +1°C° 0 mm 3 mps 719 mmHg 40%
    23:00 0°C° 0 mm 3 mps 719 mmHg 39%

    26 January, Saturday

    Time Temperature Precipitation Wind Pressure Humidity
    00:00 0°C° 0 mm 3 mps 718 mmHg 38%
    01:00 0°C° 0 mm 3 mps 718 mmHg 37%
    02:00 +1°C° 0 mm 2 mps 718 mmHg 35%
    03:00 +1°C° 0 mm 2 mps 718 mmHg 34%
    04:00 +1°C° 0 mm 2 mps 718 mmHg 33%
    05:00 +1°C° 0 mm 2 mps 717 mmHg 32%
    06:00 +1°C° 0 mm 2 mps 718 mmHg 31%
    07:00 +1°C° 0 mm 2 mps 718 mmHg 30%
    08:00 +1°C° 0 mm 2 mps 718 mmHg 29%
    09:00 +2°C° 0 mm 2 mps 717 mmHg 27%
    10:00 +4°C° 0 mm 2 mps 717 mmHg 24%
    11:00 +6°C° 0 mm 2 mps 716 mmHg 22%
    12:00 +8°C° 0 mm 1 mps 715 mmHg 22%
    13:00 +9°C° 0 mm 1 mps 715 mmHg 22%
    14:00 +9°C° 0 mm 1 mps 714 mmHg 22%
    15:00 +8°C° 0 mm 1 mps 715 mmHg 26%
    16:00 +8°C° 0 mm 1 mps 715 mmHg 29%
    17:00 +7°C° 0 mm 1 mps 716 mmHg 33%
    18:00 +6°C° 0 mm 1 mps 716 mmHg 34%
    19:00 +4°C° 0 mm 2 mps 717 mmHg 35%
    20:00 +3°C° 0 mm 2 mps 718 mmHg 36%
    21:00 +2°C° 0 mm 2 mps 718 mmHg 35%
    22:00 +1°C° 0 mm 3 mps 718 mmHg 34%
    23:00 +1°C° 0 mm 3 mps 718 mmHg 33%
    Show more